Flag for India Weather past 2 weeks in Jaipur, Rajasthan, India

Now
90 °F

Broken clouds.


Feels Like: 100 °F
Forecast: 80 / 94 °F
Wind: 3 mph from North

Location: Jaipur / Sanganer

Current Time: Jul 29, 2014 at 4:38:25 PM

Latest Report: Jul 29, 2014 at 4:00 PM


Visibility: 2 mi

Pressure: 29.53 "Hg

Humidity: 63%

Dew point: 75 °F

Location of JaipurLocation

Historic Weather in Jaipur — Graph

°F

Jaipur temperature yesterday

Maximum temperature yesterday: 84 °F (at 12:00 PM)
Minimum temperature yesterday: 77 °F (at 8:00 PM)
Average temperature yesterday: 80 °F

Past Weeks' High & Low Weather Summary

 TemperatureHumidityPressure
High97 °F (Jul 14, 3:00 PM)100% (Jul 17, 3:00 AM)29.74 "Hg (Jul 17, 3:00 AM)
Low75 °F (Jul 21, 1:00 AM)49% (Jul 21, 6:00 PM)29.42 "Hg (Jul 15, 6:00 PM)
Average85 °F73%29.56 "Hg
* Reported Jul 14 3:00 PM — Jul 29 3:00 PM, Jaipur, Weather by CustomWeather, © 2014

Note: Actual official high and low records may vary slightly from our data, if they occured in-between our weather recording intervals... More about our weather records

Advertising

Jaipur weather history for previous 24 hours

 ConditionsComfort  
Time TempWeatherWind HumidityBarometerVisibility
3:00 PM
Jul 29
86 °FBroken clouds.9 mph70%29.56 "Hg2 mi
2:00 PM90 °FBroken clouds.7 mph63%29.56 "Hg2 mi
1:00 PM88 °FBroken clouds.6 mph66%29.59 "Hg2 mi
12:00 PM88 °FBroken clouds.2 mph62%29.62 "Hg2 mi
11:00 AM86 °FBroken clouds.1 mph70%29.62 "Hg2 mi
10:00 AM84 °FFog.No wind74%29.62 "Hg1 mi
9:00 AM82 °FFog.1 mph84%29.62 "Hg1 mi
8:00 AM79 °FFog.2 mph89%29.62 "Hg1 mi
7:00 AM79 °FFog.3 mph89%29.59 "Hg1 mi
6:00 AM77 °FFog.No wind100%29.56 "Hg1 mi
5:00 AM77 °FFog.1 mph100%29.56 "Hg1 mi
4:00 AM77 °FFog.1 mph100%29.56 "Hg1 mi
3:00 AM77 °FFog.No wind100%29.56 "Hg1 mi
1:00 AM77 °FFog.No wind100%29.59 "Hg1 mi
12:00 AM77 °FFog.3 mph100%29.62 "Hg1 mi
11:00 PM
Jul 28
79 °FFog.3 mph94%29.62 "Hg1 mi
10:00 PM79 °FFog.No wind94%29.59 "Hg1 mi
9:00 PM77 °FFog.1 mph100%29.56 "Hg1 mi
8:00 PM77 °FFog.6 mph94%29.59 "Hg1 mi
7:00 PM79 °FRain. More clouds than sun.No wind94%29.59 "Hg1 mi
6:00 PM79 °FThunderstorms. More clouds than sun.5 mph94%29.53 "Hg1 mi
5:30 PM79 °FThunderstorms. More clouds than sun.1 mph94%29.53 "Hg1 mi
5:00 PM79 °FThunderstorms. More clouds than sun.7 mph94%29.53 "Hg1 mi
4:00 PM79 °FThunderstorms. Broken clouds.2 mph89%29.56 "Hg2 mi
Weather by CustomWeather, © 2014

See weather overviewHow to use our weather pages